Temp
24 26 26 25 24 24 23 24 24 24 24 24 24 24 24 24 25 25 25 25 25 24 25 25 25 25 25 26 26 26 26 26 26 26 27 26 26 25 26 27 27 26 26
22 24 26 25 24 24 23 23 24 25 24 24 25 25 25 25 25 26 25 25 25 25 25 25 25 25 25 25 26 26 26 26 26 26 24 20 24 25 25 26 26 26 25
24 22 24 25 24 24 24 24 24 25 25 25 25 25 24 25 25 25 25 25 25 25 25 25 25 25 25 26 26 25 25 26 26 26 25 21 22 23 25 26 26 26 26
24 22 23 24 25 24 25 25 26 25 25 25 25 24 25 25 25 25 25 25 25 25 25 25 25 25 25 25 25 25 25 26 25 26 26 26 26 22 23 25 25 25 26
25 24 23 25 25 25 25 25 25 25 25 25 25 25 24 24 25 25 25 25 25 25 25 25 25 24 25 25 25 25 25 25 25 25 25 26 25 24 22 23 24 25 24
24 22 24 25 25 25 24 24 24 25 25 25 25 25 25 24 25 25 26 26 25 25 25 25 25 24 24 24 25 25 25 25 25 25 25 25 25 24 24 22 23 24 24
25 22 23 22 23 24 25 24 24 24 25 25 25 25 24 24 25 25 25 25 25 25 25 25 24 24 24 24 25 25 25 25 25 25 25 25 25 25 25 24 23 22 23
24 22 22 22 23 23 24 23 24 23 24 25 25 25 24 24 24 25 25 25 25 25 25 25 25 25 24 24 25 25 25 25 25 25 25 25 25 26 26 25 24 21 21
25 23 22 22 22 24 24 23 24 23 24 24 25 25 25 24 24 25 25 25 25 25 25 25 24 24 24 24 24 25 25 25 25 25 25 25 25 25 25 26 25 24 21
25 22 21 22 22 24 24 25 25 24 23 24 24 24 25 24 24 24 25 25 25 25 25 25 25 25 25 24 24 25 25 25 25 25 25 25 25 25 25 26 25 25 24
25 22 21 22 23 23 22 24 21 22 23 23 23 24 24 24 24 24 25 25 24 25 25 26 25 25 25 25 24 24 25 25 25 25 24 25 25 25 25 25 25 25 25
22 22 22 21 22 22 20 21 23 24 24 23 22 21 23 23 24 24 24 24 24 25 25 25 25 25 25 25 25 24 25 25 25 25 24 24 24 25 25 25 25 25 25
22 21 20 21 20 21 21 22 23 24 24 21 22 21 22 23 23 24 24 24 24 24 25 25 25 25 25 25 24 25 25 25 25 24 24 25 24 25 24 24 24 24 24
23 21 20 21 22 20 20 21 22 23 23 22 23 20 22 23 23 23 25 25 24 24 24 25 25 25 25 25 24 24 25 25 24 24 24 24 24 25 24 24 24 24 23
24 22 20 19 21 19 19 21 20 21 21 21 20 19 21 23 24 23 23 24 24 24 24 24 25 25 25 24 24 24 24 24 24 24 24 24 24 24 24 24 24 24 23
25 24 22 21 20 21 20 20 20 20 20 20 20 19 20 21 23 24 24 24 25 24 24 25 24 24 24 24 24 25 24 24 24 24 24 24 24 24 24 24 23 23 23
25 23 22 21 21 22 21 20 21 21 20 20 20 20 20 21 22 22 22 24 25 25 24 24 25 24 24 24 24 24 24 24 24 24 24 24 24 24 23 23 22 22 22
24 22 21 22 22 22 22 22 21 21 20 20 20 21 21 21 21 20 20 23 23 24 23 24 24 25 25 25 24 24 24 24 24 24 25 24 24 23 23 22 21 21 21
22 21 23 22 22 23 22 22 22 22 22 21 21 21 21 20 20 21 22 22 22 23 24 24 24 25 25 25 24 24 24 24 24 24 24 24 24 24 23 22 21 20 20
22 22 24 23 23 22 22 22 22 21 21 21 21 20 20 20 20 19 19 21 22 23 23 24 24 24 24 24 24 24 24 24 24 24 24 24 24 24 22 21 20 20 20
23 23 23 23 23 22 22 22 21 21 21 20 20 20 20 19 18 19 19 19 20 20 21 21 22 22 22 23 23 22 23 24 24 23 23 23 23 23 22 20 20 20 20
22 23 22 22 22 22 22 20 20 19 20 20 19 18 17 17 17 17 18 18 19 19 20 19 19 19 19 20 21 20 21 19 20 21 22 22 23 22 21 20 19 19 19
22 22 22 21 22 22 21 20 19 19 19 19 19 18 18 16 16 17 17 16 17 17 18 18 18 17 18 18 18 19 19 19 18 19 20 21 21 20 19 19 19 18 18
22 22 21 20 20 21 21 21 20 19 19 19 18 17 17 16 15 14 14 15 15 16 16 16 16 16 16 17 17 17 18 18 18 19 19 18 18 18 19 18 17 17 18
23 23 21 20 20 20 20 21 20 20 19 18 18 17 16 16 14 14 14 13 14 14 14 14 14 14 14 15 15 15 16 17 17 18 16 15 15 15 15 14 15 15 16
23 23 22 21 20 20 21 20 20 20 19 18 17 17 16 15 14 14 14 13 14 14 15 15 15 14 14 14 14 14 15 14 14 14 14 14 14 14 14 14 14 15 15
Height
795 797 800 802 806 810 813 817 819 823 826 829 831 832 834 833 833 834 834 837 838 839 838 840 840 840 839 839 839 840 839 841 841 839 838 837 836 836 833 834 834 837 837
795 796 798 799 803 806 811 815 817 821 825 828 830 831 833 833 834 833 835 837 837 838 838 840 841 840 839 839 839 840 840 840 841 840 840 841 841 838 835 834 835 835 837
788 792 795 795 800 804 807 811 814 818 822 826 829 830 831 832 833 835 835 835 838 839 839 840 841 841 841 839 839 839 841 839 840 839 840 843 843 838 838 836 836 835 837
785 787 790 794 797 801 806 809 813 817 821 824 827 829 830 831 833 834 835 836 837 838 839 839 840 840 841 839 839 840 841 840 839 839 840 838 838 839 840 838 837 837 837
779 782 788 790 794 800 804 809 813 816 819 823 826 829 831 832 833 834 834 834 836 836 837 838 838 838 838 838 839 839 842 841 839 838 839 838 837 837 838 841 837 836 836
778 780 783 786 792 797 801 805 810 814 817 820 825 828 829 831 832 831 831 832 834 834 834 834 835 836 837 838 837 837 838 840 841 838 838 838 838 838 838 839 836 835 836
776 781 780 784 791 795 797 802 806 809 813 816 821 825 828 829 829 829 829 829 831 833 833 834 835 836 838 838 837 837 838 839 839 838 838 837 838 839 838 836 835 835 835
773 776 778 786 787 791 794 797 801 805 808 812 815 820 825 827 828 827 827 828 829 831 833 834 834 835 835 836 836 836 836 836 836 836 837 837 837 837 836 834 834 835 835
767 773 779 780 783 784 789 793 798 801 803 807 812 814 818 822 825 827 826 827 828 829 831 832 833 834 834 835 836 836 834 834 835 835 836 836 836 835 834 833 832 832 836
765 767 770 775 779 781 783 787 792 796 801 805 809 813 812 816 819 823 824 825 827 827 828 828 828 830 831 832 833 833 833 832 833 834 834 835 834 834 833 831 831 832 831
761 765 770 776 776 780 783 786 789 790 794 800 807 812 811 812 815 817 818 821 824 825 826 825 825 826 828 828 830 831 831 830 830 831 832 833 833 832 832 831 831 831 832
761 764 769 775 778 782 785 786 786 787 791 798 802 806 807 808 808 811 815 816 820 821 822 824 824 825 825 826 826 827 827 828 829 829 830 830 831 829 828 829 829 829 829
761 765 768 772 779 783 783 784 783 784 785 787 795 801 803 801 804 803 806 811 814 816 818 819 819 820 821 823 824 824 824 825 826 827 828 828 828 828 827 827 828 829 829
758 763 766 768 770 775 777 778 779 781 781 784 786 794 798 795 798 800 799 803 806 809 812 814 815 816 818 819 821 822 821 821 822 824 824 824 824 825 824 824 825 826 827
760 764 767 769 770 772 772 776 778 778 780 782 786 790 794 790 792 795 797 799 802 805 806 809 811 812 814 815 816 818 818 818 819 820 820 820 820 821 821 821 822 823 824
757 759 762 766 771 773 772 774 775 776 781 783 785 790 787 788 786 790 791 793 794 797 800 801 804 807 809 811 812 812 813 814 815 815 815 816 816 817 817 817 818 820 821
754 757 762 765 768 770 772 773 773 775 778 780 780 780 779 780 783 785 787 787 788 791 794 796 798 800 803 805 806 806 807 808 808 808 809 810 812 813 814 814 816 818 818
751 755 761 765 767 769 771 772 773 774 775 774 773 774 773 773 777 780 783 781 784 785 788 789 790 792 794 797 799 800 801 801 803 803 804 805 807 809 810 812 814 815 816
747 753 758 764 767 768 769 772 773 774 774 773 773 772 772 774 777 771 776 775 778 780 780 782 785 787 787 789 791 793 794 796 796 797 798 800 802 804 806 808 810 812 813
744 750 756 762 766 767 768 771 771 772 772 772 772 773 775 777 777 776 775 775 774 777 778 778 779 781 782 784 784 785 787 787 788 789 791 794 796 798 799 802 806 809 811
745 749 753 758 762 767 769 770 771 771 772 771 772 773 774 775 774 773 772 772 772 768 772 775 774 774 775 774 775 775 776 778 779 780 783 786 789 791 793 797 800 803 807
744 749 754 758 761 764 768 770 770 771 771 772 773 773 773 772 772 770 769 769 770 769 770 771 771 770 770 770 770 768 765 773 772 772 774 778 782 784 787 791 794 798 801
745 748 753 759 762 762 765 769 771 771 771 771 772 772 771 772 771 770 770 769 769 769 769 769 769 768 767 767 767 765 766 767 767 769 767 771 774 780 782 786 788 793 796
744 748 752 758 762 763 763 765 767 768 768 769 770 770 770 770 771 771 771 771 770 769 769 768 768 766 764 764 763 763 764 764 763 764 766 769 771 775 776 781 781 786 791
741 745 749 755 759 762 764 764 765 768 769 768 768 769 770 771 771 772 773 772 771 770 769 768 767 766 764 762 761 760 761 762 762 761 763 767 770 772 774 775 779 778 788
738 743 747 751 756 760 761 762 763 764 766 768 769 769 770 770 772 772 772 772 771 770 769 767 767 765 763 762 762 761 762 763 763 764 765 769 772 776 777 781 777 786 793
Wind_Speed
10 21 19 32 33 36 35 32 30 25 21 18 16 13 15 12 10 18 17 16 12 12 9 4 4 4 2 1 5 6 5 3 3 3 7 7 1 5 4 8 7 8 10
7 9 13 24 31 36 34 35 33 28 25 23 19 12 16 11 9 20 20 16 12 11 9 7 5 3 1 2 3 4 4 3 5 2 2 3 3 6 9 10 8 9 8
14 7 11 26 27 31 36 36 35 33 28 23 19 13 10 6 12 19 20 15 14 15 12 10 8 6 7 6 4 3 3 3 4 6 1 1 1 1 4 6 7 15 11
12 7 14 19 28 29 31 33 33 33 29 25 21 17 9 13 14 22 19 16 16 16 13 12 9 8 10 6 5 4 4 3 3 4 2 4 4 1 3 1 7 5 9
16 14 13 23 25 24 27 27 28 33 29 27 22 21 17 18 15 20 20 14 18 19 15 13 12 11 9 10 7 5 4 2 0 3 4 4 7 1 2 1 3 3 9
12 12 22 24 28 20 22 23 27 32 30 27 25 20 19 17 15 13 16 20 19 20 18 17 15 12 10 14 11 7 4 4 2 2 4 7 4 2 2 1 2 2 6
12 10 13 17 17 26 22 19 21 32 33 29 27 26 21 18 17 16 16 21 20 23 19 19 17 13 13 13 13 10 8 5 3 2 2 2 1 3 2 3 0 3 4
11 13 14 11 15 18 27 25 19 25 33 34 30 30 25 23 23 21 19 21 20 20 18 19 18 14 14 13 12 10 8 5 6 4 4 2 1 2 3 2 3 2 5
13 10 8 22 24 26 24 25 25 21 31 37 36 32 30 26 24 22 20 21 17 21 20 21 20 16 14 14 14 11 8 7 5 6 6 6 4 2 4 2 3 5 1
13 9 10 18 24 29 31 24 25 29 23 31 35 35 33 30 26 23 21 21 22 16 21 22 24 22 18 18 16 13 10 9 8 8 6 5 4 3 2 1 2 2 4
11 10 9 16 20 21 27 31 13 18 18 16 22 30 32 31 26 24 24 24 22 24 20 22 27 25 22 20 20 18 14 13 10 12 9 8 6 5 3 1 2 3 5
8 10 15 19 19 23 20 20 15 11 13 11 13 12 31 28 32 30 28 21 23 22 24 21 24 23 22 20 21 21 17 14 15 12 11 11 10 5 6 4 4 2 6
8 6 7 11 18 21 24 24 22 13 12 20 16 16 19 29 30 31 30 29 25 26 26 23 22 25 23 20 20 20 19 15 15 11 15 14 11 11 8 6 5 5 5
10 8 6 7 12 19 25 29 24 19 14 18 15 25 25 25 27 32 32 35 33 30 30 27 23 25 27 23 22 20 18 15 17 16 15 13 15 13 13 11 9 7 7
12 12 8 6 12 14 21 25 24 22 24 22 22 27 27 23 24 22 27 31 32 34 32 30 27 26 25 26 24 22 19 18 18 17 15 12 14 13 13 14 14 10 9
11 8 8 11 15 19 20 22 27 28 29 27 23 19 20 14 20 24 23 27 30 32 35 34 33 30 30 30 26 24 23 22 22 20 15 15 13 13 14 13 15 13 12
12 9 8 11 17 17 17 19 22 21 24 24 24 20 15 21 19 24 22 28 29 29 34 37 35 36 33 31 28 27 27 26 27 25 21 18 16 14 13 14 13 12 11
13 8 11 16 15 15 14 11 12 15 15 16 18 22 18 20 25 24 24 26 26 29 33 32 35 35 35 33 32 29 28 28 30 29 26 22 20 18 16 13 13 11 8
11 16 24 20 16 14 13 10 8 7 6 6 9 8 9 16 23 25 31 35 30 28 33 34 36 35 34 34 33 29 30 31 32 27 29 27 25 22 20 17 16 13 10
26 24 25 22 17 11 14 10 4 3 3 5 7 8 7 4 4 4 14 21 23 19 21 28 30 30 32 33 32 30 31 34 34 32 28 29 28 25 24 23 22 17 13
24 30 27 20 16 15 12 7 2 2 2 7 7 3 1 1 2 4 3 3 6 16 16 20 21 20 21 23 23 28 30 34 34 33 32 31 29 27 25 25 25 19 16
23 28 26 24 19 17 15 9 6 4 3 5 6 5 4 3 2 3 2 2 2 3 5 4 4 4 6 7 9 10 25 26 26 32 34 31 27 26 23 26 25 20 20
24 28 28 24 19 15 14 13 8 2 1 3 6 7 3 2 2 1 2 3 3 0 3 4 5 5 5 5 7 8 10 15 21 21 30 32 28 29 29 28 27 25 25
19 26 27 23 22 19 15 13 11 6 3 1 6 5 4 4 4 4 4 2 2 1 2 3 4 6 7 9 10 10 12 14 14 18 20 28 30 31 30 28 30 29 30
22 29 26 24 26 23 18 15 11 8 9 5 8 5 4 5 8 8 7 7 6 4 3 1 2 3 4 5 5 8 10 12 15 16 19 22 20 23 23 26 24 25 21
23 24 25 28 29 26 21 18 13 10 11 11 9 11 7 7 7 9 10 9 9 9 9 12 12 10 8 5 3 2 5 12 17 18 18 18 18 18 18 16 24 25 21
Wind_Direction
220 194 185 199 189 196 201 203 199 201 204 196 205 218 205 211 214 202 208 201 204 197 207 239 264 284 18 330 342 327 333 31 358 309 320 49 46 131 102 162 182 204 200
190 208 186 180 191 194 203 202 196 201 201 200 204 202 203 214 211 201 202 197 208 217 222 226 232 268 354 304 329 327 313 347 9 333 342 0 110 76 109 130 162 190 246
183 197 190 171 185 189 195 204 201 195 197 205 206 215 216 212 203 190 195 200 213 213 222 227 234 263 278 270 274 305 306 349 311 316 243 68 293 338 198 212 219 241 272
186 171 188 177 183 190 191 187 191 195 197 202 211 211 221 207 205 201 194 205 210 217 224 222 225 246 256 254 269 263 254 215 359 76 356 31 330 155 345 141 224 231 214
188 185 188 191 183 186 196 198 197 194 200 205 212 214 217 219 215 211 217 227 212 218 219 215 227 236 255 233 240 215 222 234 79 52 27 25 47 147 149 300 16 201 203
196 176 191 190 194 188 190 199 206 206 204 212 215 220 226 222 204 219 231 214 218 219 224 218 220 233 233 206 212 218 229 239 299 69 72 62 35 17 119 143 268 55 46
193 182 185 183 181 193 191 202 206 215 213 215 216 219 229 219 220 221 223 216 222 221 226 222 219 232 214 212 210 215 227 229 261 310 49 69 45 0 210 166 196 90 105
179 186 192 188 200 205 202 216 209 224 220 219 220 222 226 234 226 224 230 223 221 228 233 232 227 231 219 221 211 207 222 216 234 271 290 305 244 294 295 190 144 34 55
187 189 176 161 200 211 215 222 216 222 227 226 226 223 222 229 237 233 238 227 229 231 230 231 231 226 221 226 222 216 218 221 213 250 272 279 251 288 308 225 188 148 140
184 179 167 166 189 209 218 222 222 234 248 236 230 230 220 225 231 233 240 234 231 244 225 217 222 221 217 224 230 225 223 224 231 246 261 247 265 250 39 84 188 149 146
171 173 180 174 198 206 221 230 214 207 215 232 237 236 228 223 229 232 237 241 244 243 226 226 222 219 222 228 239 231 230 236 240 237 236 264 263 266 242 199 144 198 197
175 170 183 159 162 200 200 185 185 182 199 229 219 251 234 232 225 233 237 242 237 224 222 221 213 224 221 230 233 226 226 237 236 234 244 248 251 257 213 207 140 149 205
175 138 139 171 168 183 192 205 212 221 249 234 223 256 250 231 236 225 227 228 232 231 231 232 232 226 221 229 227 229 230 242 239 241 245 249 244 236 220 213 203 199 176
141 164 185 203 215 208 194 190 195 196 185 209 223 251 238 229 234 240 226 226 228 235 234 233 239 235 231 231 236 237 236 244 240 240 244 255 242 245 236 225 222 210 203
144 154 166 143 149 171 199 201 210 203 194 200 223 237 230 230 233 245 237 233 231 234 238 238 238 238 238 240 238 242 243 246 246 246 241 249 241 249 237 231 220 211 207
169 165 160 139 145 168 191 201 210 210 207 234 243 247 237 240 229 237 235 236 236 236 236 238 238 238 239 239 242 245 244 245 246 249 244 245 247 258 246 230 224 224 222
169 168 158 154 154 162 157 187 207 218 220 228 237 238 235 244 264 243 240 236 237 242 238 241 242 238 240 241 243 243 246 249 244 243 242 241 243 248 236 235 234 224 220
157 159 151 155 155 152 153 162 177 188 208 228 239 240 231 260 267 258 255 257 252 257 248 240 245 246 246 244 243 243 243 247 250 248 244 240 236 236 234 223 200 196 192
148 152 151 149 149 156 157 162 182 183 179 181 201 217 236 248 251 255 260 268 256 262 258 247 246 246 249 246 246 243 242 245 249 255 243 238 231 233 229 222 201 187 177
139 139 143 141 139 146 164 164 176 126 114 165 179 156 156 202 224 228 231 239 252 262 260 253 244 247 249 252 252 248 245 245 247 246 241 226 226 226 222 217 203 188 186
144 141 143 145 150 146 157 150 132 83 127 146 147 154 174 253 284 267 277 278 220 233 250 258 252 253 251 252 259 253 248 248 246 243 230 223 221 223 220 215 207 208 188
137 139 141 151 150 146 143 131 117 80 75 163 149 125 70 65 356 327 303 280 272 243 240 212 208 241 271 274 273 263 260 248 238 234 232 222 226 221 210 203 202 198 184
147 149 152 155 152 147 150 139 131 99 80 199 164 136 95 83 61 335 329 314 312 295 203 207 224 245 266 268 250 247 244 246 240 236 238 228 221 206 200 206 197 188 178
152 157 152 153 156 153 149 141 140 133 138 284 180 154 104 91 102 92 84 123 113 126 191 204 236 262 274 276 278 270 253 247 241 240 236 209 196 201 198 191 180 179 173
166 165 164 161 163 159 155 153 150 146 152 148 181 181 141 104 104 95 86 82 79 96 110 118 227 250 269 261 256 254 240 235 239 216 182 176 177 167 153 150 153 147 154
168 173 173 164 166 168 167 168 166 164 165 169 168 194 181 144 128 112 95 88 81 85 91 91 90 88 89 84 108 181 186 155 144 128 125 120 123 119 112 109 126 135 137